Portland, ME

3:14 AM EST on December 13, 2019 (GMT -0500)
Portland International

Weather History for KPWM - October, 2019

Change the Weather History Date:

Wednesday, October 16, 2019

  Actual Average Record
Temperature  
Mean Temperature 46 °F 49 °F  
Max Temperature 59 °F 59 °F 84 °F (1963)
Min Temperature 33 °F 39 °F 25 °F (1950)
Degree Days  
Heating Degree Days 19 16  
Month to date heating degree days 185 220  
Since 1 July heating degree days 347 441  
Cooling Degree Days 0 0  
Month to date cooling degree days 0 0  
Year to date cooling degree days 474 358  
Moisture  
Dew Point 42 °F    
Average Humidity 77    
Maximum Humidity 92    
Minimum Humidity 57    
Precipitation  
Precipitation 0.06 in 0.16 in 2.00 in (2002)
Month to date precipitation 1.10 2.46  
Year to date precipitation 35.83 35.89  
Snow  
Snow - 0.00 in T in (1884)
Month to date snowfall 0.0 0.0  
Since 1 July snowfall 0.0 0.0  
Since 1 September snowfall 0.0 0.0  
Snow Depth 0.00 in    
Sea Level Pressure  
Sea Level Pressure 29.94 in    
Wind  
Wind Speed 5 mph ()    
Max Wind Speed 26 mph    
Max Gust Speed 38 mph    
Visibility 10.0 miles    
Events      
T = Trace of Precipitation, MM = Missing Value Source: Averaged Metar Reports

Daily Weather History Graph

Daily Weather History Graph

Search for Another Location

Airport or City:

Astronomy

Oct. 16, 2019 Rise Set
Actual Time 6:56 AM EDT 5:56 PM EDT
Civil Twilight 6:27 AM EDT 6:25 PM EDT
Nautical Twilight 5:54 AM EDT 6:58 PM EDT
Astronomical Twilight 5:20 AM EDT 7:31 PM EDT
Moon 7:43 PM EDT (10/16) 9:27 AM EDT (10/16)
Length of Visible Light 11h 58m
Length of Day
11h 00m
Waning Gibbous, 93% of the Moon is Illuminated
Oct 16
Waning Gibbous
Oct 21
Last Quarter
Oct 27
New
Nov 4
First Quarter
Nov 12
Full

Hourly Weather History & Observations

Time (EDT) Temp. Windchill Dew Point Humidity Pressure Visibility Wind Dir Wind Speed Gust Speed Precip Events Conditions
12:51 AM 39.9 °F - 34.0 °F 79% 30.10 in 10.0 mi Calm Calm - N/A   Clear
1:51 AM 39.9 °F - 35.1 °F 83% 30.09 in 10.0 mi Calm Calm - N/A   Clear
2:51 AM 37.9 °F 35.5 °F 34.0 °F 86% 30.08 in 10.0 mi West 3.5 mph - N/A   Clear
3:51 AM 36.0 °F 33.3 °F 32.0 °F 86% 30.09 in 10.0 mi West 3.5 mph - N/A   Clear
4:51 AM 36.0 °F - 33.1 °F 89% 30.09 in 10.0 mi Calm Calm - N/A   Clear
5:51 AM 34.0 °F 31.0 °F 30.9 °F 89% 30.08 in 10.0 mi West 3.5 mph - N/A   Clear
6:51 AM 33.1 °F 28.7 °F 30.9 °F 92% 30.09 in 10.0 mi WNW 4.6 mph - N/A   Clear
7:51 AM 37.0 °F - 33.1 °F 86% 30.08 in 10.0 mi Calm Calm - N/A   Clear
8:51 AM 45.0 °F - 39.0 °F 80% 30.09 in 10.0 mi Calm Calm - N/A   Partly Cloudy
9:51 AM 51.1 °F - 43.0 °F 74% 30.06 in 10.0 mi Calm Calm - N/A   Mostly Cloudy
10:51 AM 55.9 °F - 48.0 °F 75% 30.04 in 10.0 mi East 8.1 mph - N/A   Overcast
11:51 AM 57.9 °F - 46.0 °F 65% 30.02 in 10.0 mi South 10.4 mph - N/A   Mostly Cloudy
12:35 PM 59.0 °F - 48.0 °F 67% 30.01 in 10.0 mi South 10.4 mph 19.6 mph N/A   Mostly Cloudy
12:51 PM 57.9 °F - 46.0 °F 65% 30.02 in 10.0 mi South 11.5 mph - N/A   Scattered Clouds
1:51 PM 57.9 °F - 44.1 °F 60% 29.99 in 10.0 mi SE 10.4 mph 18.4 mph N/A   Mostly Cloudy
2:51 PM 57.0 °F - 42.1 °F 57% 29.96 in 10.0 mi SE 12.7 mph 20.7 mph N/A   Mostly Cloudy
3:51 PM 55.9 °F - 43.0 °F 62% 29.94 in 10.0 mi SE 11.5 mph - N/A   Mostly Cloudy
4:51 PM 55.0 °F - 45.0 °F 69% 29.92 in 10.0 mi SE 10.4 mph 18.4 mph N/A   Overcast
5:51 PM 54.0 °F - 45.0 °F 72% 29.88 in 10.0 mi ESE 10.4 mph - N/A   Overcast
6:51 PM 54.0 °F - 45.0 °F 72% 29.86 in 10.0 mi East 9.2 mph - N/A   Overcast
7:51 PM 54.0 °F - 46.9 °F 77% 29.81 in 10.0 mi East 11.5 mph - N/A   Overcast
8:51 PM 54.0 °F - 48.0 °F 80% 29.78 in 10.0 mi East 12.7 mph - N/A   Overcast
9:51 PM 54.0 °F - 48.0 °F 80% 29.73 in 10.0 mi East 13.8 mph 20.7 mph N/A   Overcast
10:33 PM 54.0 °F - 48.9 °F 83% 29.69 in 10.0 mi East 16.1 mph - N/A   Overcast
10:40 PM 54.0 °F - 48.9 °F 83% 29.67 in 10.0 mi East 17.3 mph - N/A   Overcast
10:51 PM 54.0 °F - 48.9 °F 83% 29.65 in 10.0 mi East 15.0 mph 26.5 mph N/A   Overcast
11:51 PM 55.0 °F - 48.9 °F 80% 29.59 in 10.0 mi East 21.9 mph 34.5 mph N/A   Overcast